Total_Precipitation_Accumulation
1.12 1.07 1.09 1.18 1.23 1.29 1.26 1.17 1.07 1.01 1.02 1.11 1.22 1.24 1.26 1.27 1.23 1.17 1.08 1.02 0.99 0.98 1.02 1.07 1.04 1.03 1.10 1.07 1.01 0.98 1.00 1.12 1.14 0.62 0.46 0.48 0.67 0.88 0.94 0.96 1.01 0.97 0.91
1.06 1.13 1.09 1.11 1.22 1.24 1.18 1.13 1.12 1.07 1.04 1.07 1.19 1.31 1.31 1.28 1.26 1.24 1.20 1.18 1.20 1.14 1.07 1.08 1.11 1.13 1.17 1.16 1.15 1.07 0.97 0.94 1.05 0.87 0.60 0.61 0.73 0.89 0.96 1.00 1.07 1.06 0.97
0.86 1.02 1.11 1.12 1.16 1.22 1.17 1.07 1.08 1.12 1.10 1.08 1.15 1.30 1.37 1.36 1.32 1.24 1.23 1.26 1.32 1.37 1.33 1.29 1.23 1.23 1.25 1.20 1.22 1.18 1.08 0.98 0.97 1.00 0.80 0.71 0.78 0.88 1.00 1.08 1.12 1.12 1.11
0.71 0.88 1.00 1.06 1.12 1.16 1.19 1.16 1.11 1.09 1.11 1.11 1.12 1.19 1.32 1.42 1.49 1.48 1.48 1.42 1.40 1.42 1.43 1.44 1.40 1.40 1.36 1.33 1.33 1.29 1.26 1.26 1.21 1.20 1.06 0.90 0.87 0.90 1.08 1.26 1.34 1.21 1.19
0.59 0.72 0.90 0.98 1.08 1.14 1.16 1.18 1.22 1.22 1.13 1.13 1.13 1.12 1.20 1.46 1.81 1.78 1.67 1.59 1.46 1.36 1.29 1.29 1.35 1.50 1.56 1.63 1.68 1.58 1.55 1.65 1.62 1.54 1.35 1.16 1.05 1.10 1.22 1.31 1.53 1.46 1.35
0.57 0.58 0.73 0.91 1.03 1.11 1.14 1.21 1.23 1.25 1.23 1.17 1.13 1.11 1.15 1.37 1.84 1.91 1.61 1.38 1.24 1.21 1.19 1.11 1.10 1.29 1.38 1.51 1.66 1.69 1.77 1.93 2.02 1.95 1.68 1.43 1.17 1.12 1.24 1.46 1.66 1.84 1.75
0.47 0.47 0.56 0.72 0.91 1.02 1.08 1.16 1.27 1.28 1.25 1.22 1.13 1.07 1.04 1.13 1.55 1.67 1.47 1.20 1.06 1.02 1.04 1.02 1.00 1.04 1.17 1.14 1.30 1.41 1.49 1.67 1.90 2.01 1.98 1.56 1.29 1.18 1.45 1.65 1.70 1.82 1.73
0.43 0.40 0.43 0.53 0.69 0.87 1.02 1.11 1.19 1.29 1.29 1.23 1.16 1.08 1.04 1.01 1.36 1.56 1.44 1.09 0.93 0.86 0.85 0.84 0.84 0.89 1.01 1.17 1.27 1.27 1.21 1.31 1.59 1.80 1.96 1.77 1.56 1.51 1.75 2.03 2.15 2.16 1.96
0.39 0.39 0.37 0.41 0.52 0.68 0.84 0.96 1.05 1.17 1.20 1.18 1.13 1.04 1.01 0.99 1.21 1.53 1.53 1.14 0.96 0.84 0.81 0.81 0.77 0.77 1.05 1.29 1.26 1.19 1.08 1.09 1.27 1.56 1.79 1.88 1.94 2.06 2.22 2.51 2.69 2.64 2.47
0.37 0.37 0.37 0.39 0.44 0.54 0.67 0.81 0.97 1.08 1.14 1.15 1.13 1.05 0.99 0.95 1.12 1.50 1.69 1.24 1.05 0.93 0.85 0.82 0.91 0.96 1.17 1.26 1.17 1.20 1.23 1.11 1.06 1.13 1.24 1.36 1.45 1.62 1.96 2.24 2.49 2.63 2.59
0.37 0.36 0.37 0.37 0.40 0.46 0.59 0.72 0.91 1.04 1.14 1.14 1.08 1.07 0.98 0.95 0.99 1.29 1.70 1.43 1.13 1.03 0.99 0.93 0.89 1.05 1.11 1.16 1.19 1.19 1.33 1.22 1.11 1.20 1.20 1.17 1.21 1.35 1.55 1.84 2.20 2.51 2.68
0.35 0.35 0.35 0.34 0.36 0.43 0.56 0.69 0.84 1.00 1.13 1.15 1.09 1.11 1.08 1.01 1.00 1.19 1.48 1.51 1.30 1.07 0.99 0.88 0.88 1.05 1.09 1.16 1.16 1.24 1.33 1.27 1.18 1.19 1.14 1.11 1.14 1.24 1.37 1.58 1.85 2.10 2.25
0.36 0.36 0.35 0.35 0.37 0.41 0.49 0.64 0.85 0.96 1.07 1.15 1.07 1.07 1.13 1.12 1.12 1.32 1.36 1.38 1.35 1.18 1.14 1.16 1.10 1.14 1.14 1.08 1.13 1.18 1.17 1.13 1.19 1.19 1.09 1.01 1.02 1.14 1.23 1.37 1.54 1.77 1.94
0.37 0.38 0.36 0.38 0.43 0.43 0.48 0.59 0.79 0.95 1.05 1.15 1.09 1.02 1.07 1.17 1.32 1.48 1.41 1.30 1.33 1.31 1.28 1.29 1.25 1.22 1.14 1.08 1.08 1.02 0.98 1.05 1.11 1.10 1.00 0.91 0.90 1.02 1.16 1.29 1.46 1.65 1.90
0.39 0.41 0.40 0.41 0.46 0.49 0.53 0.60 0.72 0.84 1.06 1.26 1.18 1.11 1.21 1.39 1.52 1.69 1.57 1.44 1.44 1.45 1.40 1.32 1.21 1.19 1.19 1.10 1.00 0.94 0.92 0.97 1.00 0.93 0.92 0.92 0.93 1.00 1.09 1.19 1.43 1.59 1.79
0.42 0.42 0.45 0.48 0.48 0.50 0.57 0.67 0.79 0.85 0.95 1.00 1.09 1.17 1.16 1.39 1.48 1.43 1.40 1.34 1.40 1.50 1.42 1.30 1.10 1.02 1.01 0.98 0.95 0.92 0.89 0.89 0.87 0.87 0.92 0.94 0.98 1.05 1.09 1.15 1.36 1.56 1.65
0.47 0.46 0.49 0.51 0.49 0.50 0.57 0.68 0.81 0.89 0.95 0.97 1.00 1.09 1.16 1.31 1.36 1.34 1.33 1.25 1.23 1.24 1.19 1.07 0.97 0.91 0.86 0.83 0.86 0.85 0.84 0.82 0.85 0.89 0.91 0.89 0.93 0.99 1.05 1.12 1.24 1.39 1.49
0.50 0.53 0.56 0.55 0.54 0.56 0.62 0.72 0.83 0.93 1.00 1.03 1.07 1.15 1.22 1.26 1.30 1.34 1.38 1.36 1.31 1.18 1.02 0.97 0.96 0.91 0.87 0.86 0.86 0.87 0.85 0.84 0.90 0.94 0.93 0.88 0.90 0.99 1.03 1.06 1.12 1.26 1.37
0.50 0.53 0.59 0.61 0.60 0.62 0.67 0.76 0.85 0.93 0.98 1.03 1.09 1.27 1.39 1.39 1.38 1.40 1.36 1.20 1.09 1.03 0.98 0.94 0.94 0.97 0.96 0.93 0.90 0.90 0.93 0.93 0.91 0.96 0.94 0.89 0.89 0.97 1.00 1.00 1.06 1.18 1.27
0.51 0.59 0.65 0.66 0.65 0.66 0.71 0.80 0.88 0.95 0.99 1.03 1.08 1.17 1.35 1.44 1.42 1.43 1.33 1.16 1.06 0.99 0.94 0.93 0.92 0.96 1.00 0.99 0.96 0.97 0.99 0.99 0.99 1.00 0.94 0.88 0.89 0.94 0.98 0.98 1.01 1.05 1.08
0.55 0.57 0.64 0.65 0.65 0.70 0.75 0.83 0.90 0.98 1.00 1.00 1.02 1.09 1.30 1.31 1.23 1.18 1.22 1.21 1.14 1.04 0.97 0.96 0.94 0.94 0.96 0.96 0.95 0.96 0.99 0.98 0.98 0.98 0.91 0.84 0.83 0.89 0.91 0.93 0.92 0.90 0.93
0.58 0.60 0.62 0.65 0.69 0.75 0.82 0.86 0.94 1.00 0.98 0.99 1.01 1.09 1.18 1.05 1.01 1.02 1.07 1.12 1.12 1.07 0.99 1.00 0.99 0.94 0.95 0.98 0.99 1.00 1.01 0.98 0.92 0.91 0.88 0.82 0.80 0.83 0.83 0.83 0.80 0.80 0.83
0.60 0.64 0.68 0.70 0.72 0.81 0.86 0.84 0.90 0.96 0.99 0.98 0.99 1.01 1.05 1.04 1.00 0.98 1.01 1.05 1.07 1.05 1.00 1.00 0.99 0.93 0.89 0.90 0.94 1.02 1.08 1.02 0.93 0.91 0.94 0.87 0.81 0.79 0.76 0.74 0.70 0.73 0.78
0.63 0.68 0.75 0.78 0.79 0.80 0.85 0.88 0.90 0.96 1.01 0.99 0.97 0.96 1.01 1.03 1.02 0.98 0.97 0.98 1.01 1.00 0.96 0.98 0.97 0.91 0.85 0.84 0.85 0.88 0.93 0.97 0.97 0.95 0.94 0.92 0.84 0.76 0.73 0.72 0.67 0.68 0.75
0.68 0.72 0.79 0.84 0.86 0.87 0.89 0.91 0.92 0.97 1.01 0.99 0.97 0.96 0.96 0.98 1.00 0.98 0.95 0.95 0.96 0.93 0.87 0.89 0.95 0.94 0.86 0.81 0.80 0.80 0.91 0.97 1.00 1.04 1.10 1.06 0.91 0.76 0.73 0.72 0.69 0.69 0.74
0.69 0.73 0.81 0.86 0.88 0.92 0.95 0.98 0.96 0.97 1.00 0.98 0.95 0.95 0.96 0.99 1.01 0.99 0.96 0.96 1.00 0.96 0.89 0.87 0.89 0.88 0.83 0.81 0.81 0.84 0.88 0.89 0.94 1.03 1.14 1.19 1.03 0.84 0.77 0.75 0.71 0.71 0.73